[[{"header":{"parameterUnit":"m.s-1","parameterCategory":2,"la1":30.2991,"la2":30.254,"lo1":-89.0895,"lo2":-89.0444,"dy":0.0017,"dx":0.0017,"nx":28,"ny":28,"refTime":"2024-07-09T21:00:00:Z","depth":"0","parameterNumber":2,"parameterNumberName":"U-component_of_CURRENTS"},"data":[0,0,0,0,0,0,0,0,0,0,0,0,0,0,0,0,0,0,0,0,0,0,0,0,0,0,0,0,0,0,0,0,0,0,0,0,0,0,0,0,0,0,0,0,0,0,0,0,0,0,0,0,0,0,0,0,0,0,0.2576,0.2575,0,0.2503,0.2502,0.2501,0.2425,0.2424,0.2423,0.2422,0.2415,0.2416,0.2417,0,0,0,0,0,0,0,0,0,0,0,0,0,0.265,0.2649,0.2576,0.2575,0.2574,0.2504,0.2502,0.2501,0.2425,0.2424,0.2423,0.2422,0.2415,0.2416,0.2417,0,0,0,0,0,0,0,0,0,0,0,0,0,0.26,0.2648,0.2576,0.2529,0.2525,0.2504,0.2502,0.2501,0.2425,0.2424,0.2423,0.2421,0.2415,0.2416,0.2417,0.245,0,0,0.242,0.242,0,0,0,0,0,0,0,0,0.2603,0.2597,0.2537,0.2533,0.2527,0.2473,0.2526,0.2488,0.2426,0.2461,0.2422,0.2421,0.2443,0.2442,0.2427,0.245,0.2449,0.242,0.2421,0.2421,0.2421,0,0,0,0,0,0,0,0.2606,0.26,0.2545,0.2536,0.253,0.2513,0.2504,0.2518,0.246,0.2458,0.2453,0.2448,0.2441,0.2427,0.2427,0.2449,0.242,0.2421,0.2421,0.2422,0.2571,0.2574,0,0,0,0,0,0,0.262,0.2603,0.2548,0.2543,0.2565,0.2513,0.2503,0.2491,0.2459,0.2452,0.2449,0.2445,0.2426,0.2426,0.2427,0.2543,0.2421,0.2422,0.2422,0.2568,0.2572,0.2576,0,0,0,0,0,0,0.2622,0.2616,0.2551,0.2574,0.2564,0.2513,0.25,0.249,0.2484,0.2452,0.2446,0.2455,0.2425,0.2425,0.2448,0.2539,0.2422,0.2423,0.2564,0.2569,0.2574,0.2725,0,0,0,0,0,0,0.2625,0.2617,0.263,0.2574,0.2563,0.2559,0.2501,0.2489,0.2483,0.2477,0.2455,0.2452,0.2424,0.2447,0.2449,0.2538,0.2424,0.256,0.2566,0.2572,0.2716,0.2735,0.2751,0,0,0,0,0,0.2627,0.2651,0.2631,0.2625,0.2577,0.2561,0.2554,0.2512,0.2486,0.2498,0.2476,0.2453,0.249,0.2449,0.2451,0.2543,0.2557,0.2564,0.2572,0.2708,0.2731,0.2751,0,0,0,0,0,0,0.2709,0.2644,0.2621,0.2629,0.2606,0.2549,0.256,0.2529,0.2519,0.2515,0.2477,0.2474,0.2535,0.2515,0.2471,0.2606,0.2529,0.2537,0.2632,0.2653,0.2671,0.272,0.2425,0,0,0,0,0,0.273,0.2723,0.2668,0.2684,0.2669,0.2619,0.2612,0.2581,0.2557,0.2549,0.253,0.2532,0.2569,0.2587,0.2596,0.2663,0.2694,0.273,0.2747,0.2762,0.2806,0.2922,0.2955,0.2601,0.2601,0.26,0,0,0.2768,0.2736,0.2733,0.2701,0.2674,0.2685,0.2611,0.2608,0.2641,0.2556,0.2598,0.2586,0.2597,0.2668,0.2698,0.2663,0.2879,0.2772,0.2785,0.2821,0.2934,0.2969,0.3,0.2606,0.2605,0.2604,0,0,0.2855,0.2808,0.2836,0.2813,0.2783,0.2749,0.2756,0.2705,0.2706,0.2735,0.2704,0.2752,0.2765,0.2813,0.284,0.2968,0.2962,0.2965,0.3105,0.3218,0.3248,0.3276,0.3358,0.3392,0.2982,0.2982,0.2982,0,0.2913,0.2919,0.285,0.2872,0.2864,0.2787,0.2822,0.2825,0.2796,0.2824,0.2771,0.2854,0.2858,0.2997,0.3042,0.3018,0.3054,0.302,0.3243,0.3271,0.3297,0.3375,0.341,0.299,0.2989,0.2989,0.2988,0,0.3009,0.3014,0.3028,0.302,0.3016,0.3022,0.2999,0.3012,0.2991,0.2996,0.3092,0.3092,0.3148,0.3171,0.3149,0.3343,0.3301,0.3245,0.3192,0.3342,0.3413,0.3448,0.3002,0.2999,0.2997,0.2995,0,0,0.3109,0.3099,0.3101,0.3097,0.3078,0.3067,0.3146,0.3182,0.3223,0.3248,0.3334,0.3434,0.3418,0.3451,0.3439,0.3547,0.3758,0.3484,0.3486,0.3571,0.3996,0.3927,0.3956,0.3731,0.3738,0.3743,0.3972,0,0.3198,0.3255,0.3236,0.3278,0.3278,0.3241,0.3303,0.3336,0.3351,0.3411,0.3488,0.3551,0.3533,0.3549,0.3677,0.3718,0.3855,0.3701,0.3834,0.3839,0.3765,0.3997,0.3788,0.3972,0.4005,0.401,0.4014,0,0.3269,0.3289,0.3352,0.3345,0.3345,0.3372,0.3403,0.3451,0.3546,0.3571,0.3682,0.3697,0.3888,0.381,0.4066,0.396,0.4025,0.4058,0.4066,0.3981,0.3836,0.3828,0.4032,0.3914,0.4066,0.4062,0.4058,0,0.3294,0.3344,0.3386,0.3382,0.3395,0.3426,0.3436,0.3502,0.3532,0.367,0.3705,0.3905,0.3972,0.4134,0.4223,0.4161,0.446,0.4371,0.4389,0.4381,0.4225,0.4193,0.4339,0.4596,0.4596,0.4595,0.4594,0,0.3335,0.3345,0.339,0.339,0.342,0.3434,0.3471,0.3516,0.3596,0.3657,0.378,0.3864,0.4054,0.4211,0.431,0.4474,0.4553,0.4493,0.4475,0.4268,0.4239,0.4139,0.4098,0.4603,0.4602,0.46,0.4598,0,0.3301,0.3346,0.336,0.3405,0.3412,0.3417,0.3433,0.3459,0.3555,0.3642,0.3696,0.3877,0.4088,0.4259,0.4499,0.4555,0.4605,0.4744,0.4477,0.4425,0.431,0.4284,0.4309,0.4211,0.484,0.484,0.4841,0,0.3277,0.3293,0.3336,0.3331,0.3336,0.3347,0.3348,0.3424,0.3458,0.364,0.369,0.3908,0.4032,0.4363,0.4521,0.4735,0.46,0.4652,0.4525,0.436,0.432,0.4136,0.4037,0.4376,0.4372,0.4369,0.4367,0,0.321,0.3234,0.3242,0.3239,0.3238,0.3244,0.3268,0.3288,0.3406,0.349,0.3637,0.375,0.4054,0.4166,0.4422,0.4531,0.4424,0.4597,0.4513,0.4087,0.3815,0.3686,0.4145,0.434,0.4343,0.4345,0.4346,0.4347,0.3137,0.312,0.3135,0.311,0.3114,0.312,0.3095,0.3151,0.3193,0.3286,0.349,0.3587,0.3821,0.4141,0.421,0.4236,0.4272,0.4159,0.4182,0.404,0.3835,0.4241,0.4347,0.4349,0.4352,0.4354,0.4355,0,0.3028,0.3018,0.2996,0.2972,0.293,0.2985,0.3011,0.2976,0.2985,0.3123,0.3219,0.3399,0.35,0.3687,0.3887,0.3837,0.3656,0.3773,0.3465,0.3422,0.3867,0.3732,0.3602,0.3602,0.3602,0.3602,0.3603,0.3603,0.2972,0.2912,0.2896,0.2787,0.2772,0.271,0.271,0.2683,0.2741,0.2762,0.2839,0.2975,0.3332,0.3557,0.356,0.35,0.3289,0.315,0.3212,0.3506,0.3541,0.3574,0.3436,0.3247,0.3246,0.2551,0.2546,0.2543]},{"header":{"parameterUnit":"m.s-1","parameterCategory":2,"la1":30.2991,"la2":30.254,"lo1":-89.0895,"lo2":-89.0444,"dy":0.0017,"dx":0.0017,"nx":28,"ny":28,"refTime":"2024-07-09T21:00:00:Z","depth":"0","parameterNumber":3,"parameterNumberName":"V-component_of_CURRENTS"},"data":[0,0,0,0,0,0,0,0,0,0,0,0,0,0,0,0,0,0,0,0,0,0,0,0,0,0,0,0,0,0,0,0,0,0,0,0,0,0,0,0,0,0,0,0,0,0,0,0,0,0,0,0,0,0,0,0,0,0,0.0225,0.0224,0,0.0114,0.0112,0.0111,0.0043,0.0043,0.0043,0.0043,-0.0098,-0.0102,-0.0105,0,0,0,0,0,0,0,0,0,0,0,0,0,0.0314,0.0313,0.0225,0.0224,0.0223,0.0114,0.0112,0.011,0.0043,0.0043,0.0043,0.0043,-0.0097,-0.0101,-0.0106,0,0,0,0,0,0,0,0,0,0,0,0,0,0.0243,0.0313,0.0225,0.018,0.0175,0.0115,0.0112,0.011,0.0043,0.0043,0.0043,0.0043,-0.0095,-0.0101,-0.0106,-0.0144,0,0,-0.0124,-0.0126,0,0,0,0,0,0,0,0,0.0247,0.0239,0.0187,0.0183,0.0177,0.0096,0.0092,0.0025,0.0043,0.0088,0.0043,0.0043,-0.0033,-0.0044,-0.0071,-0.015,-0.0156,-0.0124,-0.0128,-0.013,-0.0132,0,0,0,0,0,0,0,0.0252,0.0243,0.0177,0.0186,0.018,0.0143,0.0133,0.0079,0.0025,0.0084,0.008,0.0075,-0.0037,-0.0065,-0.0074,-0.0158,-0.0124,-0.0129,-0.0133,-0.0135,-0.0208,-0.0207,0,0,0,0,0,0,0.0278,0.0248,0.018,0.0174,0.0218,0.0142,0.013,0.0119,0.0026,0.0013,0.0075,0.0072,-0.0055,-0.0068,-0.008,-0.0051,-0.013,-0.0136,-0.0139,-0.021,-0.0208,-0.0206,0,0,0,0,0,0,0.028,0.0272,0.0185,0.0212,0.0199,0.0141,0.0128,0.0116,0.0095,0.002,0.0006,0.0067,-0.0056,-0.0072,-0.0107,-0.006,-0.0138,-0.0143,-0.0211,-0.0209,-0.0207,-0.0044,0,0,0,0,0,0,0.0283,0.0274,0.0272,0.0214,0.0199,0.0167,0.0128,0.0114,0.0093,0.0088,0.0008,-0.0006,-0.0057,-0.0098,-0.0112,-0.0069,-0.0148,-0.0213,-0.021,-0.0208,-0.0051,-0.0036,-0.0024,0,0,0,0,0,0.0286,0.0289,0.0272,0.0264,0.0199,0.0168,0.0157,0.0113,0.0093,0.0091,0.0043,-0.0003,-0.009,-0.0102,-0.0119,-0.0076,-0.0215,-0.0211,-0.0208,-0.0057,-0.0039,-0.0024,0,0,0,0,0,0,0.033,0.0281,0.0262,0.025,0.0221,0.0159,0.0148,0.0122,0.0079,0.0074,0.0003,-0.0014,-0.002,-0.0079,-0.009,-0.0089,-0.0155,-0.0155,-0.0034,-0.0018,-0.0005,0.0058,-0.0153,0,0,0,0,0,0.034,0.0326,0.0281,0.0273,0.0259,0.0205,0.0187,0.0162,0.0119,0.0099,0.0048,0.0001,-0.0023,-0.0044,-0.0085,-0.0099,-0.0134,-0.0079,-0.0066,-0.0053,-0.0014,-0.0039,-0.0023,-0.0195,-0.0195,-0.0195,0,0,0.0355,0.0328,0.0319,0.0282,0.0248,0.0252,0.0193,0.0175,0.0197,0.0091,0.0094,0.0042,-0.0016,-0.0016,-0.0024,-0.0058,-0.0024,-0.0049,-0.0038,-0.0005,-0.0033,-0.0016,-0.0001,-0.0193,-0.0193,-0.0194,0,0,0.0392,0.0354,0.0361,0.0341,0.031,0.0285,0.0289,0.0239,0.0233,0.0225,0.0173,0.0156,0.0091,0.0079,0.0061,0.0122,0.0051,0.0101,0.0219,0.0196,0.021,0.0223,0.02,0.0209,0.0107,0.0107,0.0107,0,0.0409,0.0417,0.0361,0.037,0.0373,0.0312,0.0341,0.0326,0.028,0.0298,0.0251,0.0212,0.0151,0.0188,0.0215,0.0159,0.0128,0.0164,0.0217,0.0228,0.0238,0.0211,0.0219,0.0115,0.0114,0.0113,0.0113,0,0.0454,0.0465,0.0467,0.0465,0.0465,0.0471,0.0457,0.0464,0.0448,0.0438,0.0462,0.0387,0.0375,0.0351,0.0302,0.0356,0.0306,0.0239,0.0183,0.0266,0.0231,0.0237,0.0127,0.0124,0.0122,0.012,0,0,0.0465,0.0496,0.0495,0.0529,0.0517,0.0526,0.0577,0.0612,0.0661,0.0624,0.0693,0.0652,0.0615,0.0596,0.053,0.0511,0.0544,0.0421,0.0416,0.0414,0.0497,0.0452,0.0452,0.0482,0.0484,0.0485,0.0444,0,0.0513,0.0576,0.0581,0.0653,0.0681,0.0674,0.0733,0.0761,0.0769,0.0813,0.078,0.0797,0.0709,0.0705,0.0686,0.0583,0.0567,0.0562,0.0404,0.04,0.0362,0.046,0.0441,0.0403,0.0449,0.045,0.045,0,0.0539,0.0588,0.0673,0.0765,0.0779,0.0824,0.0913,0.0959,0.1012,0.1021,0.1045,0.1003,0.1012,0.0899,0.081,0.081,0.0688,0.0591,0.0585,0.0499,0.0366,0.0324,0.041,0.0212,0.0458,0.0457,0.0456,0,0.0557,0.0648,0.0731,0.0749,0.0839,0.0902,0.0959,0.1022,0.1086,0.1154,0.1198,0.1188,0.1178,0.1064,0.0889,0.085,0.0764,0.0668,0.0517,0.051,0.0445,0.0431,0.0339,0.0606,0.0607,0.0607,0.0607,0,0.0585,0.065,0.075,0.0786,0.0903,0.0955,0.1077,0.1129,0.1227,0.1322,0.1306,0.1364,0.1214,0.1144,0.097,0.0788,0.0826,0.0582,0.0515,0.0499,0.049,0.0272,0.0176,0.0605,0.0605,0.0606,0.0606,0,0.0582,0.0639,0.0733,0.0858,0.0904,0.0984,0.1138,0.1231,0.1313,0.1442,0.1475,0.1498,0.1414,0.1247,0.1049,0.0884,0.0597,0.0616,0.0615,0.0551,0.0223,0.0138,0.0013,-0.0071,0.0465,0.0464,0.0463,0,0.0595,0.064,0.0765,0.0828,0.0889,0.1019,0.1117,0.1246,0.1356,0.152,0.1594,0.1574,0.1573,0.1303,0.101,0.0737,0.0546,0.052,0.0443,0.0249,0.0104,0.0041,-0.0025,0.0411,0.041,0.0409,0.0408,0,0.0627,0.0653,0.0731,0.0848,0.0957,0.1096,0.1256,0.1358,0.153,0.1656,0.1799,0.1818,0.1575,0.1314,0.0945,0.0736,0.0397,0.0488,0.0288,0.0085,0.0013,-0.0116,0.0387,0.0399,0.04,0.0401,0.0401,0.0402,0.0644,0.0689,0.0778,0.0896,0.1019,0.119,0.1325,0.1504,0.1702,0.1915,0.1912,0.1967,0.1593,0.1097,0.0793,0.0257,0.028,0.0076,-0.0001,-0.004,-0.0136,0.0361,0.0289,0.029,0.029,0.029,0.029,0,0.0681,0.0738,0.0837,0.099,0.1134,0.12,0.1438,0.1597,0.1844,0.1985,0.2096,0.1947,0.1433,0.0942,0.0249,-0.0145,-0.0288,-0.036,-0.0461,-0.05,-0.0064,-0.0085,-0.024,-0.024,-0.024,-0.024,-0.024,-0.0239,0.071,0.0795,0.0849,0.1077,0.1195,0.1421,0.1568,0.1787,0.1949,0.214,0.2187,0.22,0.1907,0.0537,-0.0349,-0.0569,-0.0839,-0.0904,-0.1023,-0.0755,-0.072,-0.0688,-0.0731,-0.1019,-0.102,-0.143,-0.1434,-0.1437]}],[{"header":{"parameterUnit":"m.s-1","parameterCategory":2,"la1":30.2991,"la2":30.254,"lo1":-89.0895,"lo2":-89.0444,"dy":0.0017,"dx":0.0017,"nx":28,"ny":28,"refTime":"2024-07-09T21:00:00:Z","depth":"2","parameterNumber":2,"parameterNumberName":"U-component_of_CURRENTS"},"data":[0,0,0,0,0,0,0,0,0,0,0,0,0,0,0,0,0,0,0,0,0,0,0,0,0,0,0,0,0,0,0,0,0,0,0,0,0,0,0,0,0,0,0,0,0,0,0,0,0,0,0,0,0,0,0,0,0,0,0.2405,0.2405,0,0.2363,0.2362,0.2361,0.2292,0.2291,0.229,0.229,0.2299,0.2299,0.23,0,0,0,0,0,0,0,0,0,0,0,0,0,0.2448,0.2447,0.2405,0.2405,0.2405,0.2363,0.2362,0.2361,0.2292,0.2291,0.229,0.2289,0.2298,0.2299,0.23,0,0,0,0,0,0,0,0,0,0,0,0,0,0.2414,0.2446,0.2405,0.237,0.2367,0.2363,0.2362,0.2361,0.2292,0.2291,0.229,0.2289,0.2298,0.2299,0.2301,0.2332,0,0,0.2305,0.2305,0,0,0,0,0,0,0,0,0.2416,0.2412,0.2375,0.2372,0.2369,0.2337,0.238,0.2355,0.2293,0.2315,0.229,0.2288,0.2321,0.232,0.2306,0.2332,0.2332,0.2305,0.2306,0.2306,0.2307,0,0,0,0,0,0,0,0.2419,0.2414,0.2383,0.2375,0.2372,0.2364,0.2357,0.2375,0.2321,0.2313,0.2309,0.2314,0.2318,0.2304,0.2306,0.2333,0.2305,0.2306,0.2307,0.2308,0.2479,0.2482,0,0,0,0,0,0,0.2435,0.2416,0.2384,0.2382,0.2397,0.2365,0.2357,0.2343,0.2319,0.2316,0.2315,0.2311,0.2303,0.2304,0.2306,0.2429,0.2306,0.2308,0.2309,0.2475,0.248,0.2484,0,0,0,0,0,0,0.2436,0.2432,0.2386,0.2404,0.2398,0.2366,0.2351,0.2343,0.2343,0.2322,0.2317,0.2325,0.2302,0.2304,0.2336,0.2425,0.2308,0.231,0.2471,0.2476,0.2482,0.2619,0,0,0,0,0,0,0.2437,0.2432,0.2452,0.2404,0.2398,0.2406,0.2352,0.2344,0.235,0.2344,0.233,0.2328,0.2301,0.2334,0.2337,0.2425,0.2311,0.2466,0.2473,0.248,0.261,0.2629,0.2645,0,0,0,0,0,0.2438,0.2466,0.2453,0.2451,0.2417,0.2408,0.2405,0.2374,0.2352,0.2366,0.2351,0.2329,0.2382,0.2337,0.234,0.2431,0.2463,0.2471,0.2479,0.2602,0.2625,0.2644,0,0,0,0,0,0,0.2517,0.2461,0.2445,0.2461,0.2448,0.2399,0.2416,0.2394,0.239,0.239,0.2356,0.2355,0.2421,0.2408,0.236,0.2504,0.2428,0.2438,0.2521,0.2542,0.2559,0.2609,0.2312,0,0,0,0,0,0.2541,0.2534,0.2493,0.2515,0.2503,0.2465,0.2466,0.2445,0.2428,0.2423,0.241,0.2421,0.2459,0.2481,0.2495,0.2567,0.2586,0.2635,0.2653,0.2667,0.2713,0.2817,0.2849,0.2511,0.2511,0.2511,0,0,0.2572,0.2554,0.2547,0.2532,0.2509,0.253,0.246,0.2468,0.2513,0.2431,0.2484,0.2473,0.2488,0.2563,0.2596,0.2564,0.277,0.2678,0.269,0.2729,0.283,0.2863,0.2892,0.2517,0.2516,0.2515,0,0,0.2656,0.2616,0.2644,0.263,0.2621,0.2598,0.2609,0.2572,0.2578,0.2622,0.2591,0.2641,0.2665,0.271,0.2737,0.287,0.285,0.287,0.3011,0.3111,0.314,0.3166,0.321,0.3239,0.289,0.289,0.289,0,0.272,0.2728,0.2661,0.2693,0.2699,0.2637,0.2682,0.2691,0.2681,0.2708,0.2664,0.2753,0.2757,0.2893,0.2939,0.2917,0.2938,0.2923,0.3135,0.3161,0.3186,0.3225,0.3255,0.2897,0.2897,0.2896,0.2895,0,0.2801,0.2826,0.2839,0.285,0.2856,0.2875,0.2864,0.2884,0.2877,0.2888,0.2986,0.299,0.305,0.307,0.3048,0.3233,0.3178,0.3134,0.308,0.3228,0.3259,0.3288,0.2908,0.2906,0.2903,0.2901,0,0,0.2889,0.29,0.2905,0.2921,0.2929,0.2926,0.3014,0.3062,0.3103,0.3142,0.3232,0.3329,0.3314,0.3349,0.3336,0.3433,0.361,0.3369,0.337,0.341,0.3799,0.3595,0.3605,0.3593,0.3599,0.3604,0.3742,0,0.2981,0.306,0.3049,0.3119,0.3139,0.3114,0.3181,0.3222,0.3245,0.3308,0.3383,0.3449,0.3429,0.3449,0.3565,0.3596,0.3696,0.3575,0.3654,0.3656,0.3456,0.3636,0.3272,0.3351,0.377,0.3774,0.3778,0,0.305,0.3089,0.318,0.3208,0.3211,0.3254,0.3297,0.3353,0.3444,0.3468,0.358,0.3597,0.3784,0.3704,0.3924,0.3841,0.3857,0.3869,0.3874,0.3666,0.3508,0.3278,0.3387,0.3825,0.3821,0.3818,0.3815,0,0.3077,0.3163,0.3233,0.324,0.3283,0.3321,0.3341,0.3404,0.3435,0.3573,0.361,0.3804,0.3876,0.4004,0.406,0.4005,0.4246,0.416,0.3997,0.3979,0.3681,0.3626,0.4322,0.4321,0.4321,0.4321,0.432,0,0.3131,0.3165,0.3243,0.3254,0.3308,0.3338,0.3387,0.3428,0.351,0.3568,0.3692,0.3774,0.3954,0.4084,0.4142,0.4176,0.433,0.4077,0.4034,0.3711,0.3659,0.4072,0.4041,0.4326,0.4325,0.4324,0.4323,0,0.3095,0.3167,0.322,0.3293,0.331,0.333,0.3359,0.3385,0.3481,0.357,0.3626,0.3795,0.3961,0.4098,0.4277,0.4227,0.4302,0.4255,0.3836,0.3741,0.3942,0.3918,0.4114,0.4109,0.4104,0.41,0.4097,0,0.3074,0.3119,0.32,0.3219,0.324,0.3274,0.3282,0.3357,0.3391,0.3567,0.3615,0.3793,0.3858,0.4038,0.4005,0.4061,0.4221,0.3739,0.3576,0.4,0.3939,0.392,0.3902,0.3232,0.3223,0.3214,0.3208,0,0.3021,0.3065,0.3087,0.3126,0.3153,0.3174,0.3207,0.3228,0.3343,0.3408,0.3525,0.359,0.3684,0.3562,0.3587,0.3564,0.3709,0.3566,0.4192,0.3313,0.3172,0.3109,0.3121,0.3135,0.3142,0.3148,0.3152,0.3154,0.2962,0.2947,0.299,0.3009,0.3037,0.3054,0.3033,0.3079,0.3102,0.3137,0.3304,0.3269,0.3262,0.3086,0.3038,0.2994,0.3206,0.3089,0.3114,0.3148,0.2994,0.2849,0.2722,0.2726,0.273,0.2734,0.2737,0,0.285,0.285,0.2863,0.2881,0.2855,0.2924,0.2954,0.2888,0.2859,0.2895,0.29,0.2612,0.2482,0.257,0.2341,0.2292,0.2265,0.2254,0.2221,0.229,0.2353,0.216,0.1667,0.1665,0.1663,0.1661,0,0,0.28,0.2748,0.2743,0.2693,0.2704,0.2638,0.2636,0.2544,0.252,0.2364,0.2292,0.2347,0.2442,0.2042,0.1948,0.181,0.205,0.1723,0.2563,0.2592,0.2653,0.2792,0.2566,0,0,0,0,0]},{"header":{"parameterUnit":"m.s-1","parameterCategory":2,"la1":30.2991,"la2":30.254,"lo1":-89.0895,"lo2":-89.0444,"dy":0.0017,"dx":0.0017,"nx":28,"ny":28,"refTime":"2024-07-09T21:00:00:Z","depth":"2","parameterNumber":3,"parameterNumberName":"V-component_of_CURRENTS"},"data":[0,0,0,0,0,0,0,0,0,0,0,0,0,0,0,0,0,0,0,0,0,0,0,0,0,0,0,0,0,0,0,0,0,0,0,0,0,0,0,0,0,0,0,0,0,0,0,0,0,0,0,0,0,0,0,0,0,0,0.0111,0.011,0,0.0017,0.0015,0.0014,-0.0045,-0.0045,-0.0045,-0.0044,-0.0179,-0.0182,-0.0186,0,0,0,0,0,0,0,0,0,0,0,0,0,0.0184,0.0183,0.0111,0.011,0.011,0.0017,0.0015,0.0014,-0.0045,-0.0045,-0.0045,-0.0044,-0.0178,-0.0182,-0.0186,0,0,0,0,0,0,0,0,0,0,0,0,0,0.0122,0.0182,0.0111,0.0073,0.0069,0.0018,0.0015,0.0013,-0.0045,-0.0045,-0.0045,-0.0044,-0.0176,-0.0182,-0.0187,-0.0227,0,0,-0.0204,-0.0207,0,0,0,0,0,0,0,0,0.0126,0.0119,0.008,0.0076,0.0072,0.0003,-0.0008,-0.0067,-0.0045,-0.0008,-0.0044,-0.0044,-0.0118,-0.0129,-0.0154,-0.0234,-0.0239,-0.0205,-0.0208,-0.0211,-0.0212,0,0,0,0,0,0,0,0.013,0.0122,0.0068,0.0079,0.0074,0.0042,0.0034,-0.002,-0.0068,-0.0011,-0.0014,-0.0016,-0.0122,-0.0149,-0.0158,-0.0241,-0.0205,-0.021,-0.0213,-0.0215,-0.0292,-0.0291,0,0,0,0,0,0,0.0155,0.0126,0.0071,0.0066,0.0106,0.0042,0.0032,0.002,-0.0067,-0.0078,-0.0016,-0.0018,-0.0139,-0.0151,-0.0163,-0.0139,-0.0211,-0.0216,-0.0219,-0.0293,-0.0292,-0.029,0,0,0,0,0,0,0.0157,0.0151,0.0075,0.0099,0.0088,0.0041,0.0028,0.0018,0.0,-0.0069,-0.0082,-0.0021,-0.014,-0.0155,-0.0189,-0.0148,-0.0218,-0.0223,-0.0295,-0.0293,-0.0291,-0.0141,0,0,0,0,0,0,0.0159,0.0152,0.0152,0.0101,0.0088,0.006,0.0028,0.0016,0.0001,-0.0003,-0.0079,-0.0092,-0.0141,-0.018,-0.0194,-0.0157,-0.0228,-0.0296,-0.0294,-0.0291,-0.0148,-0.0134,-0.0122,0,0,0,0,0,0.0162,0.0163,0.0153,0.0147,0.009,0.0061,0.0051,0.0015,0.0001,-0.0002,-0.0045,-0.0089,-0.0174,-0.0184,-0.0201,-0.0164,-0.0298,-0.0295,-0.0292,-0.0153,-0.0137,-0.0123,0,0,0,0,0,0,0.02,0.0156,0.0144,0.0133,0.0109,0.0054,0.0043,0.0024,-0.0016,-0.0017,-0.0084,-0.01,-0.0109,-0.0164,-0.0173,-0.0178,-0.0238,-0.0239,-0.0127,-0.0113,-0.01,-0.0036,-0.0233,0,0,0,0,0,0.021,0.0194,0.0158,0.0151,0.0138,0.0094,0.0078,0.0061,0.0021,0.0004,-0.0043,-0.0088,-0.0113,-0.0134,-0.0175,-0.019,-0.0235,-0.0174,-0.0162,-0.015,-0.011,-0.0151,-0.0138,-0.028,-0.028,-0.028,0,0,0.0218,0.0198,0.0186,0.0158,0.0128,0.0136,0.0083,0.0069,0.0095,-0.0005,0.0001,-0.0051,-0.0108,-0.0111,-0.012,-0.0151,-0.0138,-0.0147,-0.0136,-0.0101,-0.0146,-0.0132,-0.012,-0.0278,-0.0279,-0.0279,0,0,0.0246,0.0213,0.0217,0.0202,0.0182,0.0165,0.017,0.0129,0.0126,0.0123,0.0073,0.0053,-0.0009,-0.0025,-0.0043,0.001,-0.007,-0.0011,0.0104,0.0063,0.0075,0.0085,0.0031,0.0035,-0.0005,-0.0004,-0.0004,0,0.0262,0.0271,0.0217,0.0228,0.024,0.019,0.0224,0.021,0.0173,0.0188,0.0149,0.0107,0.0046,0.0074,0.0099,0.0044,-0.0002,0.0053,0.0082,0.0091,0.0099,0.004,0.0043,0.0003,0.0002,0.0002,0.0001,0,0.0294,0.0312,0.0313,0.032,0.0325,0.0337,0.033,0.0339,0.0332,0.0323,0.0343,0.027,0.0257,0.0229,0.0182,0.022,0.0162,0.0103,0.0051,0.0123,0.0055,0.0056,0.0014,0.0011,0.0009,0.0007,0,0,0.0294,0.0333,0.0333,0.0379,0.0381,0.0395,0.0445,0.0483,0.053,0.0497,0.0564,0.0517,0.0483,0.0463,0.0398,0.0364,0.0363,0.0274,0.0268,0.0234,0.0265,0.0169,0.0158,0.0304,0.0306,0.0307,0.019,0,0.0341,0.0411,0.0418,0.0505,0.0544,0.0544,0.0601,0.0629,0.0638,0.068,0.0642,0.066,0.0572,0.0573,0.0537,0.0427,0.0373,0.04,0.019,0.0185,0.0101,0.016,0.0167,0.006,0.019,0.019,0.019,0,0.0363,0.0421,0.0519,0.0629,0.0646,0.0697,0.079,0.0837,0.0878,0.0885,0.0905,0.0864,0.0868,0.0752,0.0627,0.0649,0.0482,0.0365,0.0356,0.0226,0.009,0.001,0.0054,0.0188,0.0189,0.0189,0.0189,0,0.0386,0.0492,0.0591,0.0615,0.0719,0.0784,0.0845,0.0899,0.0961,0.1022,0.1066,0.1047,0.1043,0.0891,0.0682,0.0655,0.0502,0.0418,0.0164,0.0154,0.0103,0.0086,0.0289,0.029,0.029,0.029,0.0291,0,0.0422,0.0499,0.0616,0.0658,0.079,0.0848,0.0974,0.1019,0.1111,0.1202,0.1182,0.1235,0.1073,0.0969,0.0755,0.049,0.0553,0.0214,0.0132,0.015,0.014,0.0205,0.0197,0.0286,0.0287,0.0288,0.0288,0,0.0421,0.0492,0.0607,0.0745,0.0797,0.0887,0.1045,0.1135,0.1214,0.1339,0.1375,0.1382,0.1256,0.1048,0.0786,0.0569,0.0323,0.0179,0.021,0.0135,-0.0021,-0.0021,-0.0081,-0.0085,-0.0089,-0.0092,-0.0094,0,0.0437,0.0497,0.0643,0.0721,0.0791,0.0935,0.1035,0.1159,0.1266,0.142,0.1491,0.1433,0.1375,0.0993,0.063,0.0252,0.0225,-0.0021,-0.008,0.0022,-0.0052,-0.0046,-0.0041,-0.01,-0.0102,-0.0104,-0.0105,0,0.0478,0.0516,0.0604,0.0744,0.087,0.1017,0.118,0.1282,0.1447,0.1553,0.1664,0.1634,0.1287,0.0928,0.0424,0.017,0.0063,-0.0077,0.0046,-0.0013,-0.0007,-0.0076,-0.0068,-0.0122,-0.012,-0.0119,-0.0118,-0.0117,0.0505,0.0555,0.066,0.0803,0.094,0.1116,0.1252,0.1419,0.1597,0.1753,0.1716,0.1645,0.1266,0.0591,0.0236,-0.0116,-0.0135,-0.0283,-0.0272,-0.026,-0.0247,-0.0248,-0.0406,-0.0406,-0.0406,-0.0406,-0.0406,0,0.0537,0.0607,0.0727,0.0905,0.1056,0.1132,0.1369,0.1502,0.1714,0.1753,0.178,0.1379,0.0967,0.0592,0.0026,-0.0341,-0.0316,-0.0418,-0.0304,-0.0289,-0.0276,-0.0257,-0.0422,-0.0423,-0.0423,-0.0423,0,0,0.057,0.0665,0.0728,0.099,0.1123,0.1341,0.1487,0.1651,0.1735,0.1759,0.1679,0.1472,0.102,0.0605,0.016,-0.0113,-0.0109,-0.0166,-0.0132,0.0066,0.0086,-0.0198,-0.0155,0,0,0,0,0]}],[{"header":{"parameterUnit":"m.s-1","parameterCategory":2,"la1":30.2991,"la2":30.254,"lo1":-89.0895,"lo2":-89.0444,"dy":0.0017,"dx":0.0017,"nx":28,"ny":28,"refTime":"2024-07-09T21:00:00:Z","depth":"4","parameterNumber":2,"parameterNumberName":"U-component_of_CURRENTS"},"data":[0,0,0,0,0,0,0,0,0,0,0,0,0,0,0,0,0,0,0,0,0,0,0,0,0,0,0,0,0,0,0,0,0,0,0,0,0,0,0,0,0,0,0,0,0,0,0,0,0,0,0,0,0,0,0,0,0,0,0.0923,0.0923,0,0.0957,0.0958,0.0959,0.1076,0.1078,0.1081,0.1083,0.1169,0.1169,0.117,0,0,0,0,0,0,0,0,0,0,0,0,0,0.0852,0.0854,0.0923,0.0923,0.0923,0.0957,0.0958,0.0959,0.1076,0.1079,0.1081,0.1084,0.1169,0.1169,0.117,0,0,0,0,0,0,0,0,0,0,0,0,0,0.0889,0.0855,0.0923,0.0982,0.0987,0.0957,0.0958,0.0959,0.1075,0.1079,0.1082,0.1085,0.1169,0.1169,0.117,0.1106,0,0,0.1171,0.1171,0,0,0,0,0,0,0,0,0.0887,0.0892,0.0974,0.0978,0.0984,0.1012,0.0964,0.1009,0.1074,0.1047,0.1083,0.1087,0.1116,0.1121,0.1126,0.111,0.1114,0.1171,0.1171,0.1171,0.1172,0,0,0,0,0,0,0,0.0884,0.0891,0.0942,0.0973,0.0979,0.0969,0.098,0.0973,0.1067,0.105,0.1057,0.1052,0.112,0.1125,0.1129,0.1115,0.1171,0.1171,0.1172,0.1172,0.1223,0.1224,0,0,0,0,0,0,0.0872,0.0889,0.0941,0.0942,0.0937,0.0968,0.098,0.1003,0.1067,0.1077,0.1049,0.1057,0.1123,0.1128,0.1132,0.1275,0.1171,0.1172,0.1172,0.1222,0.1223,0.1224,0,0,0,0,0,0,0.0871,0.0878,0.0939,0.091,0.0917,0.0966,0.0991,0.1002,0.1056,0.1064,0.1078,0.1097,0.1126,0.1132,0.1194,0.1271,0.1172,0.1172,0.122,0.1222,0.1224,0.1421,0,0,0,0,0,0,0.087,0.0878,0.0903,0.0911,0.0918,0.0949,0.0988,0.1,0.1042,0.1055,0.1108,0.1117,0.1129,0.1194,0.1195,0.127,0.1173,0.1219,0.1221,0.1223,0.1413,0.1429,0.1443,0,0,0,0,0,0.0867,0.0851,0.0905,0.0911,0.0949,0.0949,0.0953,0.1,0.1041,0.1063,0.1125,0.1118,0.1207,0.1196,0.1196,0.1273,0.1218,0.122,0.1223,0.1406,0.1426,0.1443,0,0,0,0,0,0,0.0729,0.0862,0.0921,0.0922,0.096,0.0968,0.0967,0.1015,0.1076,0.1129,0.1135,0.1148,0.1241,0.12,0.1187,0.1285,0.1208,0.1211,0.1347,0.1365,0.138,0.1419,0.1173,0,0,0,0,0,0.0736,0.0804,0.0887,0.0862,0.0908,0.0956,0.0966,0.1038,0.1077,0.1111,0.1125,0.1166,0.1235,0.126,0.1288,0.1324,0.127,0.1365,0.138,0.1394,0.1421,0.1431,0.1452,0.1233,0.1232,0.1232,0,0,0.0648,0.0729,0.0754,0.0847,0.0881,0.0903,0.0973,0.1028,0.1081,0.1107,0.1157,0.1225,0.1258,0.1341,0.1373,0.1327,0.1412,0.1397,0.141,0.143,0.1436,0.1458,0.1478,0.1234,0.1234,0.1234,0,0,0.0489,0.0615,0.0644,0.0708,0.0826,0.0881,0.0911,0.099,0.1094,0.1173,0.1231,0.1345,0.1362,0.1439,0.1477,0.1568,0.1503,0.1568,0.1676,0.1687,0.1706,0.1723,0.1624,0.163,0.1564,0.1564,0.1564,0,0.0412,0.0471,0.062,0.0655,0.0713,0.0868,0.0901,0.0995,0.1079,0.1205,0.1214,0.1363,0.1418,0.1556,0.1646,0.1613,0.157,0.1622,0.1712,0.1728,0.1742,0.1637,0.1641,0.1574,0.1573,0.1572,0.1571,0,0.0289,0.0365,0.0365,0.0513,0.0568,0.0641,0.0813,0.094,0.1092,0.1205,0.1414,0.1491,0.1581,0.1638,0.1709,0.1849,0.1766,0.1747,0.1681,0.1777,0.1657,0.1659,0.1588,0.1584,0.1581,0.1579,0,0,0.0161,0.0287,0.0311,0.0398,0.0574,0.062,0.0768,0.0998,0.1134,0.1294,0.1425,0.166,0.1749,0.1797,0.1864,0.1939,0.2035,0.193,0.1925,0.1855,0.1993,0.183,0.1813,0.2054,0.2056,0.2059,0.1849,0,0.0091,0.0134,0.0226,0.029,0.0376,0.06,0.069,0.0925,0.114,0.1287,0.1537,0.1679,0.1784,0.1881,0.1968,0.2024,0.2059,0.2088,0.1889,0.1881,0.1749,0.1819,0.2068,0.185,0.185,0.185,0.185,0,0.0051,0.0116,0.016,0.0337,0.0394,0.0426,0.0738,0.0851,0.1151,0.1338,0.1547,0.1691,0.1887,0.1929,0.2031,0.205,0.2065,0.2083,0.2072,0.1865,0.1725,0.1743,0.1851,0.1851,0.1851,0.1851,0.1851,0,0.0025,0.0125,0.0182,0.0235,0.0392,0.0508,0.062,0.0897,0.1066,0.1375,0.1487,0.17,0.178,0.1875,0.1974,0.2028,0.1992,0.2015,0.1844,0.1824,0.1947,0.1931,0.2073,0.2074,0.2074,0.2075,0.2075,0,0.0034,0.0098,0.018,0.0229,0.0345,0.047,0.0641,0.0835,0.1048,0.1212,0.1479,0.1562,0.1801,0.1831,0.191,0.1838,0.1906,0.1874,0.1793,0.2018,0.2015,0.1942,0.1929,0.2067,0.2069,0.207,0.2072,0,0.0022,0.0069,0.0144,0.028,0.0336,0.0425,0.0626,0.0754,0.0963,0.1145,0.126,0.1472,0.1538,0.1644,0.1729,0.17,0.1692,0.1644,0.179,0.1716,0.1521,0.1521,0.1435,0.1428,0.1422,0.1418,0.1414,0,0.0022,0.005,0.0146,0.0195,0.0263,0.0407,0.0514,0.0735,0.0864,0.1073,0.1128,0.1257,0.14,0.1307,0.1424,0.1435,0.1476,0.1404,0.1614,0.1542,0.1472,0.148,0.1488,0.1404,0.1403,0.1401,0.14,0,0.0023,0.003,0.0073,0.0157,0.0254,0.0366,0.0524,0.0592,0.0835,0.0982,0.1094,0.1177,0.1159,0.1231,0.122,0.1253,0.1436,0.1346,0.1362,0.1559,0.1504,0.1442,0.1456,0.138,0.1383,0.1385,0.1386,0,0.0001,0.0004,0.0036,0.0125,0.0229,0.0321,0.0405,0.0558,0.0692,0.0947,0.0929,0.104,0.1146,0.1119,0.1099,0.1121,0.1175,0.1204,0.1229,0.1251,0.13,0.121,0.0935,0,0,0,0,0,-0.0016,-0.0023,0.0023,0.0105,0.0203,0.0272,0.0423,0.0509,0.0691,0.0779,0.0896,0.0937,0.0975,0.0967,0.0966,0.0955,0.112,0.0939,0.1152,0.127,0.1293,0.1374,0,0,0,0,0,0,-0.0036,-0.0022,-0.001,0.0086,0.0144,0.0256,0.034,0.0448,0.0527,0.0706,0.0733,0.0873,0.09,0.0991,0.0948,0.095,0.1066,0.1002,0.0999,0.1257,0.1278,0.1296,0.1388,0,0,0,0,0]},{"header":{"parameterUnit":"m.s-1","parameterCategory":2,"la1":30.2991,"la2":30.254,"lo1":-89.0895,"lo2":-89.0444,"dy":0.0017,"dx":0.0017,"nx":28,"ny":28,"refTime":"2024-07-09T21:00:00:Z","depth":"4","parameterNumber":3,"parameterNumberName":"V-component_of_CURRENTS"},"data":[0,0,0,0,0,0,0,0,0,0,0,0,0,0,0,0,0,0,0,0,0,0,0,0,0,0,0,0,0,0,0,0,0,0,0,0,0,0,0,0,0,0,0,0,0,0,0,0,0,0,0,0,0,0,0,0,0,0,-0.0083,-0.0083,0,-0.0109,-0.0109,-0.011,-0.0136,-0.0136,-0.0136,-0.0136,-0.0221,-0.0223,-0.0225,0,0,0,0,0,0,0,0,0,0,0,0,0,-0.0097,-0.0097,-0.0083,-0.0083,-0.0083,-0.0109,-0.0109,-0.011,-0.0136,-0.0136,-0.0136,-0.0136,-0.022,-0.0223,-0.0225,0,0,0,0,0,0,0,0,0,0,0,0,0,-0.0105,-0.0096,-0.0083,-0.0098,-0.0099,-0.0109,-0.0109,-0.011,-0.0136,-0.0136,-0.0136,-0.0136,-0.0219,-0.0222,-0.0225,-0.0239,0,0,-0.0235,-0.0236,0,0,0,0,0,0,0,0,-0.0105,-0.0105,-0.0095,-0.0097,-0.0098,-0.0118,-0.0145,-0.0155,-0.0136,-0.0124,-0.0136,-0.0137,-0.019,-0.0196,-0.0202,-0.0243,-0.0247,-0.0235,-0.0237,-0.0238,-0.0239,0,0,0,0,0,0,0,-0.0104,-0.0104,-0.0095,-0.0095,-0.0097,-0.0118,-0.0119,-0.0148,-0.0158,-0.0125,-0.0126,-0.0126,-0.0192,-0.0199,-0.0204,-0.0248,-0.0235,-0.0238,-0.024,-0.0241,-0.047,-0.0474,0,0,0,0,0,0,-0.0095,-0.0103,-0.0094,-0.0095,-0.01,-0.0117,-0.0118,-0.0113,-0.0156,-0.0162,-0.0126,-0.0127,-0.0193,-0.02,-0.0207,-0.0282,-0.0238,-0.0241,-0.0243,-0.0466,-0.0471,-0.0476,0,0,0,0,0,0,-0.0095,-0.0093,-0.0093,-0.0099,-0.01,-0.0116,-0.011,-0.0113,-0.0128,-0.0156,-0.0164,-0.0138,-0.0194,-0.0203,-0.0249,-0.0283,-0.0243,-0.0246,-0.0461,-0.0468,-0.0473,-0.0396,0,0,0,0,0,0,-0.0095,-0.0093,-0.0098,-0.0098,-0.0099,-0.0115,-0.0109,-0.0113,-0.0126,-0.0129,-0.0169,-0.0176,-0.0195,-0.0244,-0.0252,-0.0287,-0.0248,-0.0456,-0.0464,-0.0471,-0.0393,-0.0398,-0.0403,0,0,0,0,0,-0.0095,-0.0093,-0.0097,-0.0097,-0.0101,-0.0116,-0.0119,-0.0132,-0.0126,-0.0144,-0.0169,-0.0175,-0.0303,-0.0248,-0.0256,-0.0293,-0.0452,-0.0462,-0.0471,-0.039,-0.0397,-0.0403,0,0,0,0,0,0,-0.0094,-0.0095,-0.01,-0.0097,-0.0114,-0.012,-0.0135,-0.0135,-0.0166,-0.0174,-0.019,-0.0201,-0.0263,-0.0307,-0.0246,-0.04,-0.0395,-0.0406,-0.0332,-0.0338,-0.0344,-0.0327,-0.0251,0,0,0,0,0,-0.0096,-0.0092,-0.0107,-0.0101,-0.0118,-0.0127,-0.0136,-0.0147,-0.0166,-0.0179,-0.0208,-0.0264,-0.0311,-0.0341,-0.0395,-0.0452,-0.0485,-0.0506,-0.051,-0.0514,-0.0518,-0.0599,-0.0609,-0.0507,-0.0507,-0.0506,0,0,-0.0076,-0.0088,-0.0077,-0.0101,-0.0116,-0.0155,-0.0135,-0.0157,-0.019,-0.0185,-0.0246,-0.0269,-0.0332,-0.0398,-0.0436,-0.0434,-0.0561,-0.0526,-0.0526,-0.0529,-0.061,-0.0619,-0.0627,-0.0513,-0.0512,-0.0511,0,0,-0.0048,-0.0069,-0.0065,-0.0101,-0.0139,-0.017,-0.0179,-0.0207,-0.0227,-0.0286,-0.029,-0.0333,-0.0423,-0.0455,-0.0487,-0.0566,-0.0579,-0.0604,-0.0608,-0.0687,-0.0693,-0.07,-0.0727,-0.0736,-0.0612,-0.0612,-0.0612,0,-0.0033,-0.0033,-0.0067,-0.0101,-0.0136,-0.0182,-0.0212,-0.025,-0.0289,-0.0296,-0.0321,-0.0437,-0.0462,-0.0523,-0.0536,-0.0571,-0.0595,-0.0552,-0.0684,-0.0691,-0.0699,-0.0725,-0.0737,-0.061,-0.061,-0.061,-0.061,0,-0.001,-0.0033,-0.0044,-0.0111,-0.0169,-0.0195,-0.0274,-0.0324,-0.0368,-0.0384,-0.0459,-0.051,-0.0573,-0.0598,-0.0573,-0.0644,-0.0634,-0.0661,-0.0637,-0.0703,-0.0729,-0.0741,-0.0606,-0.0607,-0.0608,-0.0608,0,0,0.0092,-0.0001,-0.0009,-0.004,-0.0176,-0.0204,-0.031,-0.0372,-0.0399,-0.0488,-0.053,-0.06,-0.06,-0.064,-0.0641,-0.0691,-0.0727,-0.0676,-0.0682,-0.0649,-0.0855,-0.0706,-0.0705,-0.0756,-0.0759,-0.0761,-0.0837,0,0.0126,0.0089,0.0002,-0.0065,-0.0094,-0.022,-0.0313,-0.0391,-0.0454,-0.0514,-0.0586,-0.0619,-0.063,-0.0627,-0.0696,-0.072,-0.0763,-0.0702,-0.0846,-0.085,-0.0665,-0.0717,-0.077,-0.0846,-0.0849,-0.0852,-0.0853,0,0.0164,0.0141,0.0095,-0.0026,-0.0058,-0.0143,-0.0281,-0.0354,-0.0467,-0.0503,-0.0582,-0.0615,-0.0688,-0.0697,-0.0832,-0.0785,-0.0808,-0.0841,-0.0846,-0.0743,-0.0726,-0.0787,-0.0877,-0.0875,-0.0873,-0.0872,-0.087,0,0.027,0.019,0.0162,0.0121,-0.0031,-0.0099,-0.02,-0.0335,-0.0364,-0.0463,-0.0487,-0.0621,-0.0671,-0.0781,-0.0821,-0.0828,-0.0956,-0.0997,-0.0899,-0.0888,-0.1027,-0.102,-0.1093,-0.1093,-0.1093,-0.1092,-0.1092,0,0.0308,0.0293,0.0217,0.02,0.0148,-0.0011,-0.0082,-0.0185,-0.0303,-0.031,-0.0447,-0.0481,-0.0687,-0.0768,-0.0839,-0.0888,-0.0988,-0.0898,-0.0906,-0.0994,-0.0983,-0.1033,-0.1025,-0.1095,-0.1094,-0.1094,-0.1093,0,0.036,0.0331,0.0329,0.0229,0.0193,0.0148,0.0003,-0.0031,-0.0153,-0.0184,-0.0198,-0.0376,-0.0477,-0.064,-0.0798,-0.0867,-0.0944,-0.0919,-0.0954,-0.0963,-0.0829,-0.0817,-0.0881,-0.0876,-0.0873,-0.0869,-0.0867,0,0.0355,0.0372,0.0377,0.0386,0.0325,0.0257,0.02,0.0066,0.0046,-0.0085,-0.0087,-0.02,-0.0301,-0.0466,-0.0637,-0.0797,-0.0792,-0.0855,-0.0892,-0.0809,-0.0812,-0.0806,-0.08,-0.0861,-0.086,-0.0859,-0.0858,0,0.0353,0.0391,0.039,0.0449,0.0429,0.041,0.033,0.0314,0.0183,0.0138,0.005,-0.0066,-0.0183,-0.0382,-0.0476,-0.0592,-0.0853,-0.0817,-0.0827,-0.0863,-0.0786,-0.0791,-0.0789,-0.0845,-0.0846,-0.0848,-0.0848,0,0.035,0.0377,0.0426,0.0462,0.0503,0.0494,0.0439,0.0377,0.033,0.0191,0.0196,0.0014,-0.0097,-0.0265,-0.0355,-0.0454,-0.0505,-0.0575,-0.06,-0.0616,-0.0505,-0.0368,-0.0303,0,0,0,0,0,0.0318,0.0359,0.0413,0.0453,0.0521,0.0541,0.0496,0.0434,0.0358,0.034,0.0254,0.0172,-0.0016,-0.0135,-0.0205,-0.0303,-0.0535,-0.0389,-0.063,-0.0772,-0.0787,-0.0687,0,0,0,0,0,0,0.0294,0.0349,0.0407,0.047,0.0508,0.0539,0.0523,0.0455,0.0417,0.0345,0.0245,0.0204,0.0016,0.0066,-0.0179,-0.0216,-0.0374,-0.0474,-0.0475,-0.0763,-0.0777,-0.0789,-0.0692,0,0,0,0,0]}]]